2405 Weather Reports


time (UTC)temp
C
wind
direction
speed
KPH
gust
KPH
rain 1hr
cm
rain 24hr
cm
rain mn
cm
humidity
%
barometer
mb
20260504081557 11 267 4.8 11.3 0.00 0.00 0.00 52 1017.4
20260504044604 15 242 9.7 19.3 0.00 0.00 0.00 46 1017.4
20260504043102 15 242 9.7 19.3 0.00 0.00 0.00 46 1017.4
20260504041601 15 259 6.4 17.7 0.00 0.00 0.00 46 1017.4
20260504040106 15 212 8.0 16.1 0.00 0.00 0.00 46 1017.4
20260504034616 15 227 6.4 12.9 0.00 0.00 0.00 45 1017.4
20260504033128 15 234 8.0 14.5 0.00 0.00 0.00 45 1017.4
20260504031604 15 201 8.0 17.7 0.00 0.00 0.00 44 1017.4
20260504030104 15 209 3.2 9.7 0.00 0.00 0.00 44 1017.4
20260504024558 16 197 4.8 12.9 0.00 0.00 0.00 43 1017.4
20260504023105 16 206 4.8 12.9 0.00 0.00 0.00 42 1017.4
20260504021557 16 197 4.8 9.7 0.00 0.00 0.00 41 1017.4
20260504020100 16 237 6.4 16.1 0.00 0.00 0.00 41 1017.4
20260504014600 16 211 4.8 11.3 0.00 0.00 0.00 39 1017.4
20260504013110 17 217 3.2 6.4 0.00 0.00 0.00 38 1017.4
20260504011559 17 223 3.2 8.0 0.00 0.00 0.00 36 1017.4
20260504010113 18 223 3.2 16.1 0.00 0.00 0.00 34 1017.4
20260504004624 18 229 4.8 12.9 0.00 0.00 0.00 33 1017.4
20260504003059 18 229 6.4 19.3 0.00 0.00 0.00 32 1017.4
20260504001612 19 225 8.0 19.3 0.00 0.00 0.00 31 1017.4
20260504000100 19 260 6.4 25.7 0.00 0.00 0.00 31 1017.4
20260503234557 20 238 16.1 30.6 0.00 0.00 0.00 30 1017.4
20260503233100 20 248 12.9 29.0 0.00 0.00 0.00 30 1017.4
20260503231559 20 236 12.9 33.8 0.00 0.00 0.00 30 1017.4
20260503230103 20 213 14.5 32.2 0.00 0.00 0.00 30 1017.4
20260503224600 20 193 14.5 32.2 0.00 0.00 0.00 30 1017.4
20260503223100 20 186 11.3 32.2 0.00 0.00 0.00 30 1017.4
20260503221602 20 170 12.9 27.4 0.00 0.00 0.00 30 1017.4
20260503220059 19 212 17.7 37.0 0.00 0.00 0.00 29 1017.4
20260503214600 19 228 17.7 38.6 0.00 0.00 0.00 30 1017.4
20260503213108 18 238 16.1 45.1 0.00 0.00 0.00 31 1017.4
20260503211559 18 223 22.5 49.9 0.00 0.00 0.00 29 1017.4
20260503210111 18 217 20.9 46.7 0.00 0.00 0.00 30 1017.4
20260503204609 18 173 19.3 35.4 0.00 0.00 0.00 29 1017.4
20260503203105 18 265 9.7 46.7 0.00 0.00 0.00 30 1017.4
20260503201604 17 196 12.9 32.2 0.00 0.00 0.00 36 1017.4
20260503194600 16 188 14.5 43.5 0.00 0.00 0.00 40 1017.4
20260503193101 16 260 17.7 33.8 0.00 0.00 0.00 36 1017.4
20260503191632 16 244 12.9 37.0 0.00 0.00 0.00 38 1017.4
20260503190059 15 192 17.7 51.5 0.00 0.00 0.00 37 1017.4
20260503184601 15 179 14.5 40.2 0.00 0.00 0.00 38 1017.4
20260503183115 15 169 19.3 43.5 0.00 0.00 0.00 38 1017.4
20260503181602 15 205 17.7 43.5 0.00 0.00 0.00 40 1017.4
20260503180100 13 170 12.9 38.6 0.00 0.00 0.00 42 1017.4
20260503174558 13 238 17.7 45.1 0.00 0.00 0.00 42 1017.4
20260503173119 13 227 20.9 41.8 0.00 0.00 0.00 44 1017.4
20260503171559 12 175 16.1 48.3 0.00 0.00 0.00 47 1017.4
20260503120124 8 250 16.1 33.8 0.00 0.00 0.00 45 1017.4
20260503100107 7 250 11.3 22.5 0.00 0.00 0.00 44 1017.4